AQI (23)

Current Conditions for Foresthill, CA. Dawn, Clear skies, Dry   
Visibility: 10 miles
Space WX Alerts: EXTENDED WARNING:  Geomagnetic K-index of 4 expected ( Latest Alert ) - Issue Time: 2021 Nov 28 0852 UTC

  Summary / Temperature 

Current Temperature
51.2°F
10.7°C
(24/hr Ago)
48.5°F
(Apparent temp)
46.6°F
Cool
Wind Chill Graphs
50.3°F 

51.2°F/ 10.7°C
 --- Virtual Temp: 52.7°F ---

 Temp Rate:

 24/hr Difference:

 Avg Running Temp:

 Todays High:

 Todays Low:

 Y-days High:

 Y-days Low:

 Todays WChill:

 Y-days WChill:

 Evapotranspiration:

+0.6°F/hr 

+2.7°F

50.9°F

51.3°F 6:46am

48.8°F 3:26am

62.4°F 1:05pm

47.3°F 12:55am

43.1°F 3:32am

43.4°F 12:28am

0.007 in

115' Above Ground

 Temperature:

 6'AGL VRS 115'AGL:

 Avg Running Temp:

 Humidity:

 Todays High:

 Todays Low:

 Y-days High:

 Y-days Low:

60.0°F 

+8.8°F

60.0°F

0% 

60.0°F 12:00am

60.0°F 12:00am

65.0°F 3:04pm

57.0°F 12:00am

Temp & Humidity Graphs

  Wind 

Wind Speed

 2.0 mph

Gusting to

 8.0 mph

Wind from E

101°  E

Light air

 Avg speed:

 Wind Run:

 Peak Gust:

  3.0 mph 

19.0 miles

  15.0 mph 3:31am

  Almanac  

Moon age: 23 days,5 hours,48 minutes,39%

Waning Crescent
38%
Illuminated
23 days in cycle

 Moonrise:

 Moonset:

 Sunrise:

 Sunset:

 Solar Noon:

12:16am

1:37pm

7:00am

4:41pm

11:52am

1min 23s less daylight tomorrow 

  Solar Radiation 

(Current Solar)
  7 W/m2
(Todays High)
 7 W/m2@7:01am

Rain

 Rain Today:

 Rain Rate (/hr):

 Rain last hour:

 Rain Yesterday:

 This Month:

 Season Total:

8 Days Since Last Rain Day

0.00 in

0.000 in

0.00 in

0.00 in

2.18 in

15.05 in

Updated Time

Updated: 11/28/21  7:04am

(Updated  sec ago)

Humidity & Barometer

 Humidity:

 Wetbulb:

 Dew Point:

 Barometer:

57% 

44.8°F 

36.5°F 

30.293 inHg 

 Baro Trend:  Rising Slowly 
Northern Calif
Preparedness
Fire 
Level 

    UV Index  

(Current UV)
0.0  None
(Todays High) @ 12:00am
0.0   None

National Weather Service Forecast

Today

Sunny
Sunny
Tonight

Clear
Clear
Monday

Sunny
Sunny
Monday
Night
Mostly Clear
Mostly Clear
Tuesday

Sunny
Sunny
Tuesday
Night
Clear
Clear
Hi ≈69°F Lo ≈49°F Hi ≈68°F Lo ≈47°F Hi ≈67°F Lo ≈50°F

Foresthill Probe 2 Stats  
Foresthill Probe 2: is located on Thomas Street
at 3000 feet. The main Foresthill Weather site
is located on Melody ln at the 2860 foot elevation

Calm
49.5°F
9.7°C
Temp Rate:
+0.5°F
Calm
Gusting to
2.0 mph
(Humidity)
61%
Wind from SE
139°  SE
Updated: 28/11/21 - 07:04:17
 Todays High: 49.5°F 07:00
 Todays Low: 47.8°F 03:40
 Rain Today: 0.00 in
 Season Total: 15.51 in

Foresthill Wx: Monthly,Yearly, Highs and Lows 

Foresthill  
This Weather Data is coming from the main Foresthill
Weather site located on Melody ln at the 2860 foot
elevation
Not Foresthill Probe 2
Weather Data
Month
  High
Month
  Low
Year
High
Year
Low
Temp 76.8°F
11/14/21
39.3°F
11/7/21
103.9°F
6/18/21
25.3°F
1/26/21
Humidity 97%
11/2/21
14%
11/24/21
100%
1/3/21
5%
7/12/21
Heat Index 76.3°F
11/14/21
41.3°F
11/24/21
101.4°F
6/27/21
31.2°F
1/26/21
Wind Chill 76.8°F
11/14/21
32.8°F
11/7/21
103.9°F
6/18/21
12.5°F
1/26/21
Wind Gust 37 mph
11/8/21
0 mph
11/1/21
50 mph
1/19/21
0 mph
1/1/21
Barometer 30.46 in
11/25/21
30.00 in
11/8/21
30.52 in
2/21/21
29.56 in
10/24/21
ET 0.09 in
11/24/21
0.00 in
11/1/21
0.33 in
7/12/21
0.00 in
1/1/21
Dew Point 57.5°F
11/11/21
12.4°F
11/24/21
64.9°F
9/10/21
3.6°F
2/24/21
Visible Satellite Pacific Satellite US Radar Satellite Imagery Sacramento,CA.  (click to enlarge)
NWS Weather Forecast - Summary
Updated: Sunday, November 28, 2021 - 1:45am PST
NWS Weather Forecast: Today and Tonight (Updated: Sun, 28-Nov-2021 1:40am PST)
Today

Sunny
Sunny
Hi ≈69°F
NWS forecast: Sunny. Highs 65 to 73. Prevailing east winds up to 10 mph in the morning becoming light.
Tonight

Clear
Clear
Lo ≈49°F
NWS forecast: Clear. Lows 44 to 54. Light winds.
YR.NO 10 Day Weather forecast
Last update: 11/28/2021 @ 01:55
Next update: 11/28/2021 @ 07:55
Provided by: 22
      Temperature Precipitation Pressure Wind  
Today
11/28/2021
04:00 06:00 39°F   30.19 inHg Light breeze from east 5 mph
  06:00 12:00 41°F   30.22 inHg Light breeze from east 4 mph
  12:00 18:00 68°F   30.21 inHg Light air from west-southwest 2 mph
  18:00 00:00 55°F   30.19 inHg Light air from east-northeast 2 mph
    (Click to enlarge)
meteogram

    Forecast for next 9 days

      Temperature Precip Pressure Wind  
Monday
11/29/2021
00:00 06:00 43°F   30.20 inHg Light breeze from east 4 mph
  06:00 12:00 37°F   30.19 inHg Light breeze from east 4 mph
  12:00 18:00 68°F   30.16 inHg Light air from west-northwest 2 mph
  18:00 00:00 54°F   30.14 inHg Light air from east-northeast 2 mph
      Temperature Precip Pressure Wind  
Tuesday
11/30/2021
00:00 06:00 43°F   30.14 inHg Light breeze from east-northeast 6 mph
  06:00 12:00 39°F   30.12 inHg Light breeze from east-northeast 7 mph
  10:00 16:00 63°F   30.15 inHg Light air from northeast 3 mph
  16:00 22:00 59°F   30.09 inHg Light air from northeast 2 mph
  22:00 04:00 52°F   30.12 inHg Gentle breeze from east-northeast 8 mph
      Temperature Precip Pressure Wind  
Wednesday
12/01/2021
04:00 10:00 52°F   30.11 inHg Gentle breeze from east 8 mph
  10:00 16:00 64°F   30.16 inHg Light breeze from east 4 mph
  16:00 22:00 61°F   30.09 inHg Light air from east-northeast 3 mph
  22:00 04:00 43°F   30.12 inHg Light breeze from east-northeast 6 mph
      Temperature Precip Pressure Wind  
Thursday
12/02/2021
04:00 10:00 41°F   30.08 inHg Light breeze from east 4 mph
  10:00 16:00 64°F   30.11 inHg Light air from east 3 mph
  16:00 22:00 61°F   30.06 inHg Calm from west-northwest 0 mph
  22:00 04:00 43°F   30.09 inHg Light breeze from east 4 mph
      Temperature Precip Pressure Wind  
Friday
12/03/2021
04:00 10:00 39°F   30.07 inHg Light breeze from east 5 mph
  10:00 16:00 63°F   30.10 inHg Light air from east 2 mph
  16:00 22:00 59°F   30.06 inHg Light air from west-southwest 2 mph
  22:00 04:00 41°F   30.10 inHg Light breeze from east 4 mph
      Temperature Precip Pressure Wind  
Saturday
12/04/2021
04:00 10:00 39°F   30.09 inHg Light air from east 3 mph
  10:00 16:00 61°F   30.11 inHg Light air from east-northeast 1 mph
  16:00 22:00 57°F   30.06 inHg Light air from west 2 mph
  22:00 04:00 39°F   30.09 inHg Light breeze from east 4 mph
      Temperature Precip Pressure Wind  
Sunday
12/05/2021
04:00 10:00 36°F   30.08 inHg Light breeze from east 4 mph
  10:00 16:00 57°F   30.10 inHg Light air from west-northwest 1 mph
  16:00 22:00 54°F 0.02 in 30.00 inHg Light air from southwest 2 mph
  22:00 04:00 48°F 0.24 in 29.96 inHg Light breeze from south 4 mph
      Temperature Precip Pressure Wind  
Monday
12/06/2021
04:00 10:00 41°F   29.99 inHg Light breeze from west 4 mph
  10:00 16:00 43°F   30.07 inHg Light breeze from north-northeast 6 mph
  16:00 22:00 41°F   30.06 inHg Light breeze from north 6 mph
  22:00 04:00 32°F   30.13 inHg Light breeze from north-northeast 6 mph
      Temperature Precip Pressure Wind  
Tuesday
12/07/2021
04:00 10:00 32°F   30.11 inHg Light breeze from east-northeast 7 mph
How Close Are We To this Month's Temperature Record ?
Updated Sunday, Nov 28, 2021- 7:00:00 AM

Current Temperature: 51.2°F

November's High: Temperature Record 80.3°F - Set on Mon, Nov 2, 2020 - 12:23:00 PM
We are currently 29.1°F Less than this Month's record High

November's Low: Temperature Record 28.9°F - Set on Thu, Nov 26, 2015 - 6:22:00 AM
We are currently 22.3°F More than this Month's record Low

Weather History For Sunday, November 28, 2021


On this Day - In Weather History ...
Data courtesy of weatherforyou.com
powered by Cumulus v1.9.3 (1059)
Ambient Weather VWS v14.00
Top Website Map Copyright © 2007 - 2021 Foresthillweather.com Never base important decisions on this or any weather information obtained from the Internet